EN

Hourly Weather Altendiez

Today, 22 January, Friday

Time Temperature Precipitation Wind Pressure Humidity
00:00 +7°C° 0.2 mm 5 mps 728 mmHg 85%
01:00 +7°C° 0.2 mm 5 mps 727 mmHg 83%
02:00 +7°C° 0.3 mm 6 mps 727 mmHg 83%
03:00 +7°C° 0.3 mm 6 mps 727 mmHg 84%
04:00 +6°C° 0.3 mm 7 mps 726 mmHg 85%
05:00 +6°C° 1 mm 7 mps 726 mmHg 86%
06:00 +6°C° 1 mm 7 mps 727 mmHg 87%
07:00 +5°C° 1 mm 6 mps 727 mmHg 88%
08:00 +5°C° 0.8 mm 5 mps 727 mmHg 89%
09:00 +4°C° 0.8 mm 4 mps 728 mmHg 89%
10:00 +4°C° 0.8 mm 2 mps 728 mmHg 90%
11:00 +5°C° 0 mm 2 mps 729 mmHg 85%
12:00 +5°C° 0 mm 2 mps 729 mmHg 80%
13:00 +7°C° 0 mm 1 mps 730 mmHg 76%
14:00 +7°C° 0 mm 1 mps 729 mmHg 76%
15:00 +7°C° 0 mm 1 mps 729 mmHg 77%
16:00 +7°C° 0 mm 1 mps 729 mmHg 77%
17:00 +5°C° 0 mm 0 mps 730 mmHg 80%
18:00 +4°C° 0 mm 0 mps 730 mmHg 83%
19:00 +4°C° 0 mm 0 mps 730 mmHg 86%
20:00 +4°C° 0.1 mm 0 mps 730 mmHg 87%
21:00 +5°C° 0.1 mm 1 mps 731 mmHg 87%
22:00 +5°C° 0.1 mm 1 mps 731 mmHg 88%
23:00 +4°C° 0.1 mm 1 mps 731 mmHg 89%

Tomorrow, 23 January, Saturday

Time Temperature Precipitation Wind Pressure Humidity
00:00 +4°C° 0.1 mm 1 mps 731 mmHg 89%
01:00 +4°C° 0.1 mm 1 mps 732 mmHg 90%
02:00 +4°C° 0 mm 1 mps 732 mmHg 91%
03:00 +2°C° 0 mm 0 mps 732 mmHg 92%
04:00 +2°C° 0 mm 0 mps 732 mmHg 93%
05:00 +1°C° 0 mm 0 mps 732 mmHg 93%
06:00 +1°C° 0 mm 0 mps 732 mmHg 93%
07:00 +1°C° 0 mm 0 mps 732 mmHg 94%
08:00 +2°C° 0 mm 1 mps 732 mmHg 92%
09:00 +3°C° 0 mm 1 mps 732 mmHg 90%
10:00 +3°C° 0 mm 1 mps 731 mmHg 89%
11:00 +4°C° 0 mm 1 mps 731 mmHg 85%
12:00 +4°C° 0 mm 2 mps 731 mmHg 82%
13:00 +5°C° 0 mm 2 mps 731 mmHg 78%
14:00 +4°C° 0.1 mm 2 mps 731 mmHg 79%
15:00 +4°C° 0.1 mm 2 mps 731 mmHg 80%
16:00 +4°C° 0.1 mm 2 mps 730 mmHg 80%
17:00 +3°C° 0 mm 2 mps 730 mmHg 83%
18:00 +2°C° 0 mm 2 mps 731 mmHg 86%
19:00 +2°C° 0 mm 1 mps 731 mmHg 89%
20:00 +2°C° 0 mm 1 mps 731 mmHg 90%
21:00 +2°C° 0 mm 1 mps 731 mmHg 90%
22:00 +2°C° 0 mm 1 mps 731 mmHg 91%
23:00 +2°C° 0 mm 1 mps 731 mmHg 91%

Day after tomorrow, 24 January, Sunday

Time Temperature Precipitation Wind Pressure Humidity
00:00 +2°C° 0 mm 1 mps 731 mmHg 91%
01:00 +1°C° 0 mm 2 mps 731 mmHg 90%
02:00 +1°C° 0.1 mm 2 mps 731 mmHg 91%
03:00 +1°C° 0.1 mm 2 mps 731 mmHg 92%
04:00 +1°C° 0.1 mm 2 mps 731 mmHg 93%
05:00 +1°C° 0.2 mm 2 mps 732 mmHg 93%
06:00 0°C° 0.2 mm 3 mps 732 mmHg 93%
07:00 0°C° 0.2 mm 3 mps 733 mmHg 93%
08:00 0°C° 0.1 mm 3 mps 733 mmHg 90%
09:00 0°C° 0.1 mm 3 mps 734 mmHg 86%
10:00 0°C° 0.1 mm 3 mps 734 mmHg 82%
11:00 +1°C° 0.1 mm 3 mps 734 mmHg 80%
12:00 +1°C° 0.1 mm 3 mps 734 mmHg 78%
13:00 +2°C° 0.1 mm 2 mps 734 mmHg 76%
14:00 +2°C° 0.1 mm 2 mps 734 mmHg 77%
15:00 +2°C° 0.1 mm 2 mps 734 mmHg 78%
16:00 +3°C° 0.1 mm 1 mps 734 mmHg 78%
17:00 +2°C° 0 mm 1 mps 734 mmHg 81%
18:00 +1°C° 0 mm 1 mps 735 mmHg 84%
19:00 +1°C° 0 mm 1 mps 735 mmHg 86%
20:00 +1°C° 0 mm 1 mps 735 mmHg 87%
21:00 -1°C° 0 mm 0 mps 735 mmHg 87%
22:00 -1°C° 0 mm 0 mps 735 mmHg 88%
23:00 -1°C° 0 mm 0 mps 735 mmHg 88%

25 January, Monday

Time Temperature Precipitation Wind Pressure Humidity
00:00 -1°C° 0 mm 0 mps 735 mmHg 89%
01:00 -1°C° 0 mm 0 mps 735 mmHg 90%
02:00 -1°C° 0 mm 0 mps 736 mmHg 90%
03:00 -1°C° 0 mm 0 mps 736 mmHg 90%
04:00 -1°C° 0 mm 0 mps 736 mmHg 90%
05:00 -1°C° 0 mm 0 mps 737 mmHg 90%
06:00 -2°C° 0 mm 0 mps 738 mmHg 90%
07:00 -2°C° 0 mm 0 mps 738 mmHg 91%
08:00 -1°C° 0 mm 0 mps 739 mmHg 88%
09:00 0°C° 0 mm 1 mps 739 mmHg 86%
10:00 +1°C° 0 mm 1 mps 740 mmHg 83%
11:00 +1°C° 0 mm 2 mps 740 mmHg 80%
12:00 +1°C° 0 mm 2 mps 740 mmHg 77%
13:00 +1°C° 0 mm 3 mps 740 mmHg 73%
14:00 +1°C° 0.1 mm 3 mps 740 mmHg 78%
15:00 0°C° 0.1 mm 3 mps 740 mmHg 84%
16:00 0°C° 0.1 mm 3 mps 740 mmHg 89%
17:00 -1°C° 0.3 mm 2 mps 740 mmHg 91%
18:00 -1°C° 0.3 mm 2 mps 740 mmHg 92%
19:00 -1°C° 0.3 mm 2 mps 740 mmHg 94%
20:00 -1°C° 0.1 mm 3 mps 741 mmHg 93%
21:00 0°C° 0.1 mm 3 mps 741 mmHg 92%
22:00 -1°C° 0.1 mm 4 mps 742 mmHg 91%
23:00 0°C° 0.1 mm 3 mps 742 mmHg 89%

26 January, Tuesday

Time Temperature Precipitation Wind Pressure Humidity
00:00 -1°C° 0.1 mm 3 mps 742 mmHg 88%
01:00 -1°C° 0.1 mm 3 mps 743 mmHg 86%
02:00 -1°C° 0.4 mm 3 mps 743 mmHg 90%
03:00 -1°C° 0.4 mm 2 mps 743 mmHg 93%
04:00 -1°C° 0.4 mm 2 mps 743 mmHg 96%
05:00 -1°C° 0.9 mm 2 mps 744 mmHg 96%
06:00 +1°C° 0.9 mm 2 mps 744 mmHg 97%
07:00 0°C° 0.9 mm 3 mps 744 mmHg 97%
08:00 0°C° 0.1 mm 3 mps 745 mmHg 96%
09:00 0°C° 0.1 mm 3 mps 745 mmHg 95%
10:00 0°C° 0.1 mm 4 mps 746 mmHg 93%
11:00 0°C° 0 mm 4 mps 746 mmHg 92%
12:00 +1°C° 0 mm 3 mps 746 mmHg 91%
13:00 +2°C° 0 mm 3 mps 746 mmHg 89%
14:00 +1°C° 0 mm 3 mps 746 mmHg 88%
15:00 +1°C° 0 mm 3 mps 746 mmHg 87%
16:00 +1°C° 0 mm 3 mps 746 mmHg 86%
17:00 +1°C° 0 mm 3 mps 746 mmHg 88%
18:00 0°C° 0 mm 3 mps 745 mmHg 89%
19:00 +1°C° 0 mm 2 mps 745 mmHg 91%
20:00 0°C° 0.3 mm 3 mps 744 mmHg 93%
21:00 0°C° 0.3 mm 3 mps 744 mmHg 95%
22:00 0°C° 0.3 mm 3 mps 743 mmHg 97%
23:00 0°C° 1.2 mm 4 mps 742 mmHg 97%

27 January, Wednesday

Time Temperature Precipitation Wind Pressure Humidity
00:00 0°C° 1.2 mm 4 mps 741 mmHg 97%
01:00 +1°C° 1.2 mm 5 mps 740 mmHg 97%
02:00 +2°C° 0.7 mm 5 mps 740 mmHg 96%
03:00 +3°C° 0.7 mm 5 mps 739 mmHg 94%
04:00 +5°C° 0.7 mm 5 mps 739 mmHg 93%
05:00 +3°C° 1 mm 5 mps 739 mmHg 93%
06:00 +3°C° 1 mm 6 mps 739 mmHg 94%
07:00 +3°C° 1 mm 6 mps 740 mmHg 94%
08:00 +3°C° 0.3 mm 6 mps 741 mmHg 92%
09:00 +3°C° 0.3 mm 6 mps 741 mmHg 90%
10:00 +3°C° 0.3 mm 7 mps 742 mmHg 89%
11:00 +3°C° 0.1 mm 6 mps 743 mmHg 88%
12:00 +3°C° 0.1 mm 6 mps 744 mmHg 87%
13:00 +4°C° 0.1 mm 6 mps 744 mmHg 87%
14:00 +3°C° 0 mm 5 mps 745 mmHg 87%
15:00 +4°C° 0 mm 4 mps 745 mmHg 87%
16:00 +4°C° 0 mm 4 mps 745 mmHg 88%
17:00 +4°C° 0 mm 3 mps 746 mmHg 89%
18:00 +3°C° 0 mm 3 mps 746 mmHg 90%
19:00 +3°C° 0 mm 3 mps 746 mmHg 91%
20:00 +3°C° 0 mm 3 mps 746 mmHg 92%
21:00 +2°C° 0 mm 3 mps 746 mmHg 93%
22:00 +2°C° 0 mm 3 mps 747 mmHg 94%
23:00 +3°C° 0 mm 3 mps 746 mmHg 93%
Show more